TimeEDT,TemperatureF,Dew PointF,Humidity,Sea Level PressureIn,VisibilityMPH,Wind Direction,Wind SpeedMPH,Gust SpeedMPH,PrecipitationIn,Events,Conditions,WindDirDegrees,DateUTC
12:53 AM,66.9,63.0,87,30.04,10.0,Calm,Calm,-,N/A,,Clear,0,2013-08-27 04:53:00
1:53 AM,68.0,62.1,81,30.01,10.0,SW,3.5,-,N/A,,Clear,230,2013-08-27 05:53:00
2:53 AM,69.1,61.0,75,30.00,10.0,SSW,5.8,-,N/A,,Clear,210,2013-08-27 06:53:00
3:53 AM,66.9,62.1,84,29.99,10.0,Calm,Calm,-,N/A,,Clear,0,2013-08-27 07:53:00
4:53 AM,66.9,62.1,84,29.99,10.0,Calm,Calm,-,N/A,,Clear,0,2013-08-27 08:53:00
5:53 AM,66.9,62.1,84,29.99,10.0,Calm,Calm,-,N/A,,Clear,0,2013-08-27 09:53:00
6:53 AM,64.9,62.1,90,30.00,10.0,Calm,Calm,-,N/A,,Partly Cloudy,0,2013-08-27 10:53:00
7:53 AM,68.0,64.0,87,30.00,9.0,Calm,Calm,-,N/A,,Partly Cloudy,0,2013-08-27 11:53:00
8:53 AM,70.0,64.9,84,30.00,10.0,Calm,Calm,-,N/A,,Clear,0,2013-08-27 12:53:00
9:53 AM,77.0,66.9,71,29.99,9.0,SSW,4.6,-,N/A,,Clear,200,2013-08-27 13:53:00
10:53 AM,80.1,68.0,67,29.99,6.0,Variable,3.5,-,N/A,,Haze,0,2013-08-27 14:53:00
11:53 AM,82.9,66.9,58,29.98,8.0,Calm,Calm,-,N/A,,Haze,0,2013-08-27 15:53:00
12:53 PM,84.0,69.1,61,29.97,7.0,Calm,Calm,-,N/A,,Haze,0,2013-08-27 16:53:00
1:53 PM,86.0,70.0,59,29.95,8.0,Variable,3.5,-,N/A,,Haze,0,2013-08-27 17:53:00
2:53 PM,87.1,69.1,55,29.93,8.0,Calm,Calm,-,N/A,,Haze,0,2013-08-27 18:53:00
3:53 PM,84.9,72.0,65,29.93,7.0,Calm,Calm,-,N/A,,Haze,0,2013-08-27 19:53:00
4:53 PM,84.0,70.0,63,29.93,6.0,NNW,4.6,-,0.00,,Haze,330,2013-08-27 20:53:00
5:47 PM,78.8,71.6,78,29.94,1.8,Calm,Calm,-,0.02,Rain,Heavy Rain,0,2013-08-27 21:47:00
5:53 PM,78.1,70.0,76,29.92,1.8,Calm,Calm,-,0.02,Rain,Light Rain,0,2013-08-27 21:53:00
5:55 PM,77.0,69.8,78,29.94,3.0,Calm,Calm,-,0.00,Rain,Light Rain,0,2013-08-27 21:55:00
6:53 PM,77.0,69.1,76,29.92,7.0,NW,3.5,-,0.00,,Scattered Clouds,320,2013-08-27 22:53:00
7:53 PM,75.0,70.0,84,29.93,6.0,South,3.5,-,N/A,,Haze,180,2013-08-27 23:53:00
8:53 PM,78.1,66.9,68,29.94,9.0,Calm,Calm,-,N/A,,Clear,0,2013-08-28 00:53:00
9:53 PM,75.9,69.1,79,29.94,8.0,Calm,Calm,-,N/A,,Scattered Clouds,0,2013-08-28 01:53:00
10:53 PM,73.9,69.1,85,29.94,7.0,SW,3.5,-,N/A,,Mostly Cloudy,230,2013-08-28 02:53:00
11:53 PM,73.9,66.9,79,29.94,8.0,SW,3.5,-,N/A,,Partly Cloudy,230,2013-08-28 03:53:00